Santa Ana, CA

11:37 PM PDT on May 23, 2017 (GMT -0700)
John Wayne-Orange County

Weather History for KSNA - April, 2013

Change the Weather History Date:

Monday, April 1, 2013

  Actual Average Record
Temperature  
Mean Temperature 62 °F 60 °F  
Max Temperature 67 °F 68 °F 84 °F (2000)
Min Temperature 56 °F 53 °F 47 °F (2010)
Degree Days  
Heating Degree Days 3 5  
Month to date heating degree days 3 5  
Since 1 July heating degree days 1023 1092  
Cooling Degree Days 0 0  
Month to date cooling degree days 0 0  
Year to date cooling degree days 4 15  
Growing Degree Days 10 (Base 50)    
Moisture  
Dew Point 50 °F    
Average Humidity 68    
Maximum Humidity 83    
Minimum Humidity 52    
Precipitation  
Precipitation 0.00 in 0.03 in 0.49 in (2004)
Month to date precipitation 0.00 0.03  
Year to date precipitation 1.67 7.79  
Since 1 July precipitation 4.69  
Snow  
Snow 0.00 in - - ()
Month to date snowfall 0.0  
Year to date snowfall 0.0  
Snow Depth 0.00 in    
Sea Level Pressure  
Sea Level Pressure 30.12 in    
Wind  
Wind Speed 6 mph (WSW)    
Max Wind Speed 14 mph    
Max Gust Speed 20 mph    
Visibility 10 miles    
Events      
T = Trace of Precipitation, MM = Missing Value Source: NWS Daily Summary

Daily Weather History Graph

Daily Weather History Graph

Search for Another Location

Airport or City:

Trip Planner

Search our weather history database for the weather conditions in past years. The results will help you decide how hot, cold, wet, or windy it might be!

Date:

Astronomy

Apr. 01, 2013 Rise Set
Actual Time 6:38 AM PDT 7:12 PM PDT
Civil Twilight 6:13 AM PDT 7:37 PM PDT
Nautical Twilight 5:44 AM PDT 8:06 PM PDT
Astronomical Twilight 5:14 AM PDT 8:37 PM PDT
Moon 12:12 AM PDT (4/1) 10:42 AM PDT (4/1)
Length of Visible Light 13h 23m
Length of Day
12h 33m
Waning Gibbous, 66% of the Moon is Illuminated
Apr 1
Waning Gibbous
Apr 2
Last Quarter
Apr 10
New
Apr 18
First Quarter
Apr 25
Full

Hourly Weather History & Observations

Time (PDT) Temp. Dew Point Humidity Pressure Visibility Wind Dir Wind Speed Gust Speed Precip Events Conditions
12:53 AM 57.0 °F 51.1 °F 81% 30.12 in 10.0 mi West 3.5 mph - N/A   Scattered Clouds
1:00 AM 57.2 °F 51.8 °F 82% 30.12 in 10.0 mi Calm Calm - N/A   Mostly Cloudy
1:53 AM 57.0 °F 51.1 °F 81% 30.12 in 10.0 mi SW 3.5 mph - N/A   Overcast
3:28 AM 57.2 °F 51.8 °F 82% 30.11 in 10.0 mi Calm Calm - N/A   Scattered Clouds
3:39 AM 57.2 °F 51.8 °F 82% 30.12 in 10.0 mi West 4.6 mph - N/A   Mostly Cloudy
4:53 AM 55.9 °F 50.0 °F 80% 30.12 in 10.0 mi West 4.6 mph - N/A   Overcast
5:53 AM 57.0 °F 48.9 °F 74% 30.13 in 10.0 mi WSW 3.5 mph - N/A   Overcast
6:53 AM 57.0 °F 50.0 °F 77% 30.14 in 10.0 mi Variable 3.5 mph - N/A   Overcast
7:53 AM 57.9 °F 50.0 °F 75% 30.16 in 10.0 mi WSW 4.6 mph - N/A   Mostly Cloudy
9:00 AM 60.8 °F 46.4 °F 59% 30.17 in 10.0 mi Variable 4.6 mph - N/A   Mostly Cloudy
9:53 AM 61.0 °F 48.0 °F 62% 30.17 in 10.0 mi Variable 3.5 mph - N/A   Mostly Cloudy
10:53 AM 62.1 °F 46.9 °F 58% 30.17 in 10.0 mi Calm Calm - N/A   Mostly Cloudy
11:53 AM 64.0 °F 48.0 °F 56% 30.17 in 10.0 mi West 6.9 mph - N/A   Mostly Cloudy
1:53 PM 66.0 °F 48.0 °F 52% 30.14 in 10.0 mi WSW 8.1 mph - N/A   Mostly Cloudy
3:53 PM 64.0 °F 51.1 °F 63% 30.11 in 10.0 mi WSW 11.5 mph - N/A   Scattered Clouds
4:53 PM 63.0 °F 51.1 °F 65% 30.09 in 10.0 mi WSW 12.7 mph 19.6 mph N/A   Scattered Clouds
5:53 PM 62.1 °F 52.0 °F 70% 30.09 in 10.0 mi West 10.4 mph - N/A   Scattered Clouds
6:53 PM 60.1 °F 52.0 °F 75% 30.10 in 10.0 mi West 6.9 mph - N/A   Scattered Clouds
7:53 PM 59.0 °F 52.0 °F 78% 30.09 in 10.0 mi Variable 5.8 mph - N/A   Scattered Clouds
8:53 PM 59.0 °F 52.0 °F 78% 30.09 in 10.0 mi West 4.6 mph - N/A   Scattered Clouds
9:53 PM 57.9 °F 52.0 °F 81% 30.09 in 10.0 mi WSW 3.5 mph - N/A   Scattered Clouds
10:53 PM 57.9 °F 52.0 °F 81% 30.09 in 10.0 mi Calm Calm - N/A   Scattered Clouds
11:53 PM 57.0 °F 51.1 °F 81% 30.09 in 10.0 mi SSW 4.6 mph - N/A   Clear